World > North America > United States > Texas

Winnsboro, Texas Regional Weather

Lat: 32.96N, Lon: 95.29W
Wx Zone: TXZ124Web Search

Helpful Tip: You can add this page to Bookmarks by pressing the Ctrl key & d key at the same time. Mac users press command & d.

Feedback


°F Click to change Winnsboro hourly weather to Imperial units.Click to change Winnsboro hourly weather to Metric units. °C
Winnsboro Weather Map
UTC Time: 4/11/2021, 16:24
Your Time:

Winnsboro, TX Regional Weather

Expires:202104111700;;391486
ASUS44 KFWD 111615
RWRTX 
NORTH TEXAS HOURLY WEATHER ROUNDUP
NATIONAL WEATHER SERVICE FORT WORTH TX
1100 AM CDT SUN APR 11 2021

NOTE: "FAIR" INDICATES FEW OR NO CLOUDS BELOW 12,000 FEET WITH NO
SIGNIFICANT WEATHER AND/OR OBSTRUCTIONS TO VISIBILITY.


TXZ095>097-106>112-122>126-135>138-148>153-164>167-111700-
EAST TEXAS
  
CITY           SKY/WX    TMP DP  RH WIND       PRES   REMARKS
PARIS          FAIR      69  45  41 SW13      29.80                   
SULPHUR SPRNGS FAIR      69  42  37 SW13      29.82S                  
MOUNT PLEASANT FAIR      68  46  44 SW8       29.81S                  
GILMER         FAIR      68  44  42 SE5       29.80F                  
MINEOLA        FAIR      70  46  43 SW8       29.80S                  
TYLER          FAIR      70  42  36 S8        29.80S                  
LONGVIEW       FAIR      70  46  42 SW5       29.80R                  
MARSHALL       FAIR      68  45  44 S3        29.83S                  
ATHENS         FAIR      68  43  40 S5        29.80R                  
PALESTINE      FAIR      72  43  35 S6        29.82R                  
JACKSONVILLE   FAIR      69  48  46 CALM      29.83F                  
HENDERSON      FAIR      69  46  43 S3        29.83S                  
CENTER         FAIR      68  46  45 S3        29.83S                  
NACOGDOCHES    FAIR      69  47  45 SW3       29.83R                  
LUFKIN         FAIR      70  45  40 SE5       29.81S                  
$$

SUPPLEMENTAL OBSERVATIONS (NWS FORT WORTH AREA)
  
CITY           SKY/WX    TMP DP  RH WIND       PRES   REMARKS
CADDO GRASSLND   N/A     70  43  37 SW9G17      N/A                   
LBJ GRASSLAND    N/A     72  39  30 S9          N/A                   
COMANCHE         N/A     75  30  19 S20         N/A                   
MCGREGOR         N/A     73  41  31 S7          N/A                   
LAKE LIMESTONE   N/A     73  46  38 SE5         N/A                   
$$

SUPPLEMENTAL OBSERVATIONS (NWS NORMAN AREA)
  
CITY           SKY/WX    TMP DP  RH WIND       PRES   REMARKS
GOODLETT         N/A     70  33  25 S14       29.69S                  
ODELL            N/A     67  37  33 S13       29.73R                  
CROWELL          N/A     71  35  26 SW20      29.72S                  
KNOX CITY        N/A     71  36  27 S14       29.72F                  
SEYMOUR          N/A     73  37  27 S20       29.72F                  
MILLERS CREEK    N/A     73  39  29 S14         N/A                   
$$

SUPPLEMENTAL OBSERVATIONS (NWS SAN ANGELO AREA)
  
CITY           SKY/WX    TMP DP  RH WIND       PRES   REMARKS
WEINERT          N/A     72  36  27 S20       29.73F                  
HASKELL          N/A     72  38  28 S15       29.73F                  
THROCKMORTON     N/A     73  38  28 S15       29.75S                  
STAMFORD         N/A     75  37  25 SW15      29.74F                  
CLYDE            N/A     73  37  27 SW22      29.76S                  
HAMBY            N/A     73  36  25 S23G31      N/A                   
IVIE RESERVOIR   N/A     77  37  24 S16         N/A                   
COLORADO BEND    N/A     73  27  17 S14G22      N/A                   
$$

SUPPLEMENTAL OBSERVATIONS (NWS SHREVEPORT AREA)
  
CITY           SKY/WX    TMP DP  RH WIND       PRES   REMARKS
TEXARKANA        N/A     72  46  40 SW5         N/A                   
LINDEN           N/A     72  45  37 S3          N/A                   
CADDO LAKE       N/A     73  43  33 W3          N/A                   
LUFKIN           N/A     72  48  43 MISG        N/A                   
N SABINE NF      N/A     72  46  40 MISG        N/A                   
$$

SUPPLEMENTAL OBSERVATIONS ARE A COLLECTION OF AUTOMATED INSTRUMENTS
THAT ARE MAINTAINED BY A VARIETY OF FEDERAL AND STATE AGENCIES. 
CERTAIN ELEMENTS...SUCH AS HUMIDITY VALUES AND SUSTAINED WIND 
SPEEDS...MAY BE APPROXIMATED.

  

SKY/WX - Weather  TMP - Temperature  DP - Dew Point  RH - Relative Humidity
WIND - Wind Direction/Speed PRES - Barometric Pressure VSB - Visibility
WCI - Wind Chill Index E13G22 Wind - East Wind 13 mph/Gusts of 22 mph